Location: Newark
(49.3000°N, 9.4667°E)
Time: 02:07:13
(UTC+00:00)

Transit 4A - Visible Passes

Search period start: 27 May 2019 00:00
Search period end: 06 June 2019 00:00
Orbit: 862 x 983 km, 66.8° (Epoch: 26 May)

Date Brightness Start Highest point End Pass type
(mag) Time Alt. Az. Time Alt. Az. Time Alt. Az.
27 May 8.5 21:04:37 10° NNW 21:10:56 54° NE 21:16:09 15° ESE visible
27 May 8.7 22:51:20 10° NW 22:57:12 39° WSW 22:59:39 28° SSW visible
28 May 8.2 21:13:58 10° NNW 21:20:25 70° NE 21:25:08 19° SE visible
28 May 9.2 23:01:02 10° NW 23:06:19 28° WSW 23:08:38 22° SW visible
29 May 8.0 21:23:20 10° NW 21:29:49 88° WSW 21:34:08 22° SSE visible
29 May 9.6 23:11:00 10° WNW 23:15:21 19° WSW 23:17:38 16° SW visible
30 May 9.1 19:46:23 10° NNW 19:52:17 36° NE 19:58:07 10° ESE visible
30 May 8.1 21:32:46 10° NW 21:39:09 66° WSW 21:43:11 23° SSE visible
30 May 10.0 23:21:33 10° WNW 23:24:20 13° W 23:26:42 11° WSW visible
31 May 8.7 19:55:43 10° NNW 20:01:54 46° NE 20:07:59 10° ESE visible
31 May 8.5 21:42:16 10° NW 21:48:23 48° WSW 21:52:17 22° S visible
01 Jun 8.4 20:05:03 10° NNW 20:11:26 59° NE 20:17:41 10° SE visible
01 Jun 9.0 21:51:53 10° NW 21:57:33 34° WSW 22:01:24 18° SSW visible
02 Jun 8.1 20:14:24 10° NW 20:20:53 78° NE 20:27:04 11° SE visible
02 Jun 9.5 22:01:39 10° NW 22:06:38 24° WSW 22:10:35 14° SSW visible
03 Jun 8.1 20:23:48 10° NW 20:30:15 80° WSW 20:36:16 11° SSE visible
03 Jun 9.9 22:11:47 10° WNW 22:15:39 17° WSW 22:19:29 10° SW visible
04 Jun 8.4 20:33:15 10° NW 20:39:33 59° WSW 20:45:31 11° SSE visible
04 Jun 10.2 22:22:56 10° W 22:24:35 11° W 22:26:14 10° WSW visible
05 Jun 8.9 20:42:47 10° NW 20:48:46 42° WSW 20:54:36 10° S visible
